[[{"header":{"parameterUnit":"m.s-1","parameterCategory":1,"la1":30.2991,"la2":30.254,"lo1":-89.0895,"lo2":-89.0444,"dy":0.0017,"dx":0.0017,"nx":28,"ny":28,"refTime":"2024-11-26T09:00:00:Z","depth":0,"parameterNumber":2,"parameterNumberName":"U-component_of_WINDS"},"data":[0,0,0,0,0,0,0,0,0,0,0,0,0,0,0,0,0,0,0,0,0,0,0,0,0,0,0,0,0,0,0,0,0,0,0,0,0,0,0,0,0,0,0,0,0,0,0,0,0,0,0,0,0,0,0,0,0,0,2.4635,2.4637,0,2.4777,2.4779,2.478,2.4822,2.4821,2.4821,2.482,2.4962,2.4966,2.4971,0,0,0,0,0,0,0,0,0,0,0,0,0,2.4396,2.4401,2.4635,2.4637,2.4639,2.4777,2.4779,2.4781,2.4822,2.4821,2.4821,2.482,2.496,2.4966,2.4971,0,0,0,0,0,0,0,0,0,0,0,0,0,2.4515,2.4402,2.4635,2.4676,2.4681,2.4776,2.4779,2.4781,2.4823,2.4821,2.482,2.4819,2.4959,2.4965,2.4972,2.5035,0,0,2.4992,2.4995,0,0,0,0,0,0,0,0,2.4508,2.4524,2.4668,2.4674,2.4679,2.4781,2.4747,2.4866,2.4823,2.4769,2.482,2.4819,2.4902,2.4913,2.4942,2.5041,2.5047,2.4993,2.4997,2.5,2.5001,0,0,0,0,0,0,0,2.45,2.4518,2.4691,2.467,2.4677,2.4686,2.4702,2.4769,2.484,2.4773,2.4777,2.4793,2.4905,2.4936,2.4946,2.505,2.4992,2.4998,2.5003,2.5005,2.5206,2.5207,0,0,0,0,0,0,2.4485,2.4511,2.4687,2.4695,2.459,2.4692,2.4709,2.4749,2.4839,2.4852,2.4794,2.4795,2.4925,2.4938,2.4951,2.503,2.5,2.5006,2.501,2.5205,2.5206,2.5208,0,0,0,0,0,0,2.448,2.4501,2.4681,2.4604,2.4628,2.4697,2.4742,2.4753,2.4784,2.4855,2.4867,2.4813,2.4925,2.4942,2.5014,2.5036,2.5009,2.5015,2.5203,2.5205,2.5207,2.5189,0,0,0,0,0,0,2.4473,2.4499,2.4524,2.4605,2.4632,2.4742,2.4743,2.4756,2.4795,2.4798,2.4876,2.4888,2.4925,2.5003,2.502,2.5044,2.502,2.5202,2.5204,2.5206,2.5188,2.519,2.5192,0,0,0,0,0,2.4464,2.4513,2.4525,2.4546,2.4665,2.4743,2.4759,2.4802,2.4797,2.4823,2.4868,2.4885,2.5031,2.501,2.503,2.5056,2.52,2.5203,2.5206,2.5187,2.5189,2.5192,0,0,0,0,0,0,2.4432,2.4524,2.4539,2.4615,2.4671,2.475,2.4784,2.4804,2.4861,2.4861,2.4911,2.4928,2.4996,2.5034,2.5009,2.5121,2.5116,2.5123,2.5094,2.5098,2.51,2.5089,2.5026,0,0,0,0,0,2.4434,2.4491,2.4568,2.4627,2.4655,2.4714,2.475,2.4778,2.4838,2.4862,2.4913,2.4969,2.5027,2.5065,2.5122,2.5194,2.521,2.5221,2.5223,2.5224,2.5229,2.5269,2.5274,2.5218,2.5218,2.5218,0,0,2.4438,2.4495,2.4528,2.4622,2.4669,2.4725,2.4734,2.4793,2.4835,2.487,2.4942,2.4981,2.5047,2.5118,2.5152,2.5151,2.5249,2.5228,2.5229,2.5233,2.5272,2.5278,2.5282,2.522,2.5219,2.5219,0,0,2.4474,2.4524,2.4578,2.4625,2.4697,2.4736,2.4749,2.4826,2.4853,2.4926,2.4953,2.5003,2.5103,2.5148,2.5184,2.5237,2.5254,2.5255,2.5265,2.5303,2.5307,2.5311,2.5329,2.5335,2.526,2.526,2.526,0,2.4469,2.4557,2.4604,2.4662,2.4702,2.4737,2.4792,2.4835,2.4921,2.4947,2.4945,2.5071,2.5118,2.52,2.5213,2.5242,2.5257,2.5246,2.5303,2.5307,2.5312,2.5329,2.5336,2.5259,2.5259,2.5259,2.5259,0,2.4547,2.4607,2.4643,2.4726,2.477,2.4826,2.488,2.4919,2.4943,2.4982,2.5055,2.5113,2.5182,2.5204,2.5228,2.5289,2.5287,2.5293,2.5289,2.5316,2.5333,2.534,2.5258,2.5259,2.5259,2.5259,0,0,2.4566,2.4675,2.4687,2.4725,2.4806,2.4853,2.491,2.4979,2.5011,2.5069,2.5117,2.52,2.5207,2.5248,2.5278,2.5311,2.5348,2.5313,2.5316,2.5317,2.5417,2.5411,2.5418,2.536,2.5361,2.5363,2.5411,0,2.4612,2.4717,2.476,2.4845,2.49,2.4934,2.4984,2.5038,2.5076,2.5127,2.5169,2.5227,2.5232,2.5257,2.5291,2.5336,2.5368,2.5333,2.5404,2.5406,2.5385,2.5427,2.5421,2.5464,2.5418,2.542,2.542,0,2.4679,2.4738,2.4828,2.4902,2.4927,2.4971,2.5038,2.5087,2.5149,2.5174,2.5219,2.5247,2.5307,2.5299,2.5382,2.5357,2.5388,2.5414,2.5417,2.5424,2.5414,2.5435,2.5479,2.5485,2.5432,2.5431,2.543,0,2.4682,2.4785,2.4852,2.4883,2.4971,2.5001,2.5039,2.51,2.5139,2.5196,2.5222,2.5285,2.532,2.5367,2.5411,2.5402,2.5489,2.5485,2.551,2.5509,2.5526,2.5524,2.5575,2.5548,2.5548,2.5548,2.5548,0,2.4728,2.4781,2.4854,2.4895,2.4956,2.5005,2.5063,2.5103,2.5157,2.5205,2.5238,2.5283,2.5338,2.5389,2.5424,2.5486,2.5501,2.5522,2.5531,2.5519,2.5516,2.554,2.5537,2.555,2.5549,2.5549,2.5549,0,2.4741,2.4793,2.4868,2.4946,2.4966,2.5007,2.5073,2.5113,2.5153,2.5214,2.5231,2.5292,2.5354,2.5403,2.5483,2.5506,2.5571,2.5581,2.5551,2.5555,2.5577,2.5574,2.5644,2.5655,2.5621,2.5621,2.5621,0,2.4767,2.4809,2.4891,2.4927,2.4965,2.5021,2.5061,2.5111,2.515,2.5224,2.5255,2.5319,2.5373,2.547,2.5521,2.5582,2.5593,2.5613,2.5602,2.5589,2.5592,2.5589,2.5593,2.5614,2.5614,2.5614,2.5615,0,2.4806,2.4829,2.4886,2.4952,2.4998,2.5052,2.5106,2.5133,2.5192,2.5235,2.5299,2.5341,2.5423,2.5486,2.5553,2.559,2.5612,2.5618,2.5627,2.5615,2.5595,2.5605,2.5553,2.5616,2.5616,2.5616,2.5615,2.5615,2.4825,2.4864,2.4928,2.499,2.5036,2.5086,2.5128,2.5173,2.5228,2.53,2.5325,2.5391,2.5451,2.5543,2.558,2.5631,2.5633,2.5646,2.5649,2.5651,2.5649,2.5588,2.5644,2.5644,2.5644,2.5644,2.5644,0,2.4865,2.4908,2.4965,2.504,2.5089,2.5106,2.5167,2.5206,2.5264,2.5318,2.5371,2.5444,2.5505,2.5561,2.5625,2.5655,2.5666,2.567,2.5667,2.5675,2.5645,2.5631,2.5659,2.5659,2.5659,2.5659,2.5659,2.5659,2.4891,2.4958,2.4988,2.5077,2.512,2.5186,2.5219,2.5264,2.5308,2.5389,2.544,2.5477,2.5532,2.5599,2.5656,2.567,2.5692,2.5692,2.5709,2.568,2.5678,2.5676,2.5662,2.5697,2.5697,2.5735,2.5736,2.5736]},{"header":{"parameterUnit":"m.s-1","parameterCategory":1,"la1":30.2991,"la2":30.254,"lo1":-89.0895,"lo2":-89.0444,"dy":0.0017,"dx":0.0017,"nx":28,"ny":28,"refTime":"2024-11-26T09:00:00:Z","depth":0,"parameterNumber":3,"parameterNumberName":"V-component_of_WINDS"},"data":[0,0,0,0,0,0,0,0,0,0,0,0,0,0,0,0,0,0,0,0,0,0,0,0,0,0,0,0,0,0,0,0,0,0,0,0,0,0,0,0,0,0,0,0,0,0,0,0,0,0,0,0,0,0,0,0,0,0,2.3374,2.3374,0,2.3423,2.3424,2.3424,2.3466,2.3467,2.3467,2.3468,2.3515,2.3516,2.3516,0,0,0,0,0,0,0,0,0,0,0,0,0,2.3311,2.3312,2.3373,2.3374,2.3375,2.3423,2.3424,2.3425,2.3466,2.3467,2.3467,2.3468,2.3514,2.3515,2.3516,0,0,0,0,0,0,0,0,0,0,0,0,0,2.3347,2.3312,2.3373,2.3402,2.3405,2.3423,2.3424,2.3425,2.3466,2.3467,2.3468,2.3468,2.3514,2.3515,2.3517,2.351,0,0,2.352,2.3521,0,0,0,0,0,0,0,0,2.3345,2.3349,2.3397,2.34,2.3403,2.3439,2.3419,2.3453,2.3466,2.3443,2.3468,2.3469,2.3489,2.3492,2.35,2.3512,2.3514,2.352,2.3521,2.3522,2.3522,0,0,0,0,0,0,0,2.3342,2.3347,2.3393,2.3397,2.3401,2.341,2.3416,2.3426,2.3461,2.3445,2.3448,2.3453,2.3491,2.3499,2.3501,2.3515,2.352,2.3521,2.3522,2.3523,2.3523,2.3523,0,0,0,0,0,0,2.3336,2.3345,2.3392,2.3395,2.3375,2.3411,2.3418,2.3427,2.3461,2.3467,2.3453,2.3455,2.3496,2.35,2.3503,2.3497,2.3522,2.3523,2.3523,2.3524,2.3523,2.3523,0,0,0,0,0,0,2.3334,2.334,2.339,2.3371,2.3378,2.3411,2.3421,2.3428,2.3436,2.3467,2.3473,2.3455,2.3497,2.3501,2.3508,2.3499,2.3523,2.3524,2.3525,2.3524,2.3523,2.3486,0,0,0,0,0,0,2.3333,2.3339,2.3338,2.337,2.3379,2.3395,2.3421,2.3428,2.3438,2.3442,2.3471,2.3476,2.3498,2.3506,2.3509,2.3502,2.3525,2.3526,2.3525,2.3523,2.3488,2.3483,2.348,0,0,0,0,0,2.333,2.3324,2.3337,2.3343,2.3378,2.3394,2.3399,2.3425,2.3437,2.3436,2.3456,2.3475,2.35,2.3506,2.351,2.3503,2.3527,2.3525,2.3523,2.349,2.3484,2.348,0,0,0,0,0,0,2.3288,2.3329,2.3344,2.3349,2.3368,2.3401,2.34,2.3419,2.3433,2.3436,2.3467,2.3473,2.3476,2.349,2.3497,2.3498,2.3516,2.3515,2.3489,2.3484,2.348,2.3476,2.3526,0,0,0,0,0,2.328,2.3291,2.3326,2.3327,2.3336,2.3366,2.3374,2.3393,2.3413,2.3421,2.3442,2.346,2.3471,2.3478,2.3491,2.349,2.3496,2.3487,2.3483,2.3479,2.3478,2.3478,2.3474,2.3517,2.3517,2.3517,0,0,2.3262,2.3286,2.3291,2.3319,2.3336,2.3345,2.3372,2.3381,2.3388,2.3422,2.343,2.3446,2.3467,2.347,2.3472,2.3482,2.3467,2.3477,2.3474,2.3475,2.3476,2.3472,2.3468,2.3516,2.3516,2.3517,0,0,2.3235,2.3255,2.3258,2.3274,2.33,2.332,2.3321,2.3351,2.3363,2.3372,2.3397,2.3405,2.3425,2.344,2.345,2.3428,2.3446,2.3431,2.341,2.3409,2.3406,2.3403,2.3394,2.3391,2.343,2.343,2.343,0,2.3209,2.3226,2.3256,2.3264,2.3275,2.3307,2.331,2.3324,2.3351,2.3358,2.3369,2.3394,2.3411,2.3418,2.3412,2.3419,2.342,2.3428,2.3404,2.3402,2.3399,2.3391,2.3388,2.3428,2.3428,2.3428,2.3428,0,2.3193,2.3204,2.3203,2.3231,2.3242,2.3247,2.3276,2.3284,2.3301,2.332,2.3328,2.3349,2.3367,2.337,2.3387,2.3378,2.3383,2.3399,2.3417,2.3393,2.3386,2.3383,2.3425,2.3426,2.3426,2.3427,0,0,2.3141,2.3185,2.3184,2.3197,2.3228,2.3236,2.3242,2.3261,2.3266,2.3284,2.3289,2.3305,2.332,2.3331,2.3349,2.3349,2.3329,2.3364,2.3365,2.3357,2.3321,2.3308,2.3305,2.3342,2.3341,2.3341,2.3319,0,2.3118,2.3132,2.3159,2.3164,2.3174,2.3205,2.321,2.3228,2.3246,2.3256,2.3275,2.3286,2.3304,2.3311,2.3312,2.3332,2.3322,2.3334,2.3345,2.3345,2.3339,2.3301,2.3289,2.3266,2.3316,2.3316,2.3315,0,2.3093,2.3111,2.3117,2.3147,2.3152,2.3157,2.3175,2.3185,2.3206,2.3219,2.3232,2.3253,2.3259,2.3276,2.3285,2.3292,2.3298,2.3309,2.3308,2.331,2.3329,2.3301,2.326,2.3256,2.3312,2.3312,2.3312,0,2.3054,2.3079,2.3086,2.3096,2.3131,2.3133,2.3148,2.317,2.3179,2.3195,2.3201,2.3217,2.3226,2.3237,2.3261,2.3271,2.3267,2.3286,2.3276,2.3276,2.3273,2.3273,2.3232,2.3278,2.3278,2.3278,2.3278,0,2.3025,2.3028,2.3069,2.3073,2.3076,2.3106,2.3108,2.3125,2.3145,2.3152,2.3179,2.3184,2.3216,2.3225,2.3244,2.3248,2.3251,2.3261,2.3266,2.3258,2.3257,2.3262,2.3264,2.3278,2.3278,2.3278,2.3278,0,2.2981,2.3009,2.3019,2.3052,2.306,2.3061,2.3088,2.3093,2.3112,2.3121,2.3124,2.3154,2.3166,2.3192,2.321,2.3222,2.3221,2.3231,2.3215,2.3218,2.3206,2.3207,2.3167,2.3163,2.3212,2.3211,2.3211,0,2.2961,2.2964,2.2998,2.3005,2.3019,2.303,2.304,2.307,2.3079,2.3103,2.3104,2.3119,2.3132,2.3149,2.3172,2.3186,2.3195,2.318,2.3197,2.3189,2.3194,2.3193,2.3193,2.3176,2.3175,2.3174,2.3174,0,2.2922,2.2936,2.295,2.2969,2.298,2.2996,2.3013,2.3017,2.305,2.3058,2.3072,2.3082,2.3101,2.3115,2.3132,2.3146,2.3165,2.3169,2.3167,2.3159,2.3149,2.3154,2.3204,2.3169,2.317,2.317,2.317,2.3171,2.2889,2.2893,2.2917,2.2932,2.2948,2.2963,2.2969,2.299,2.3002,2.3021,2.3037,2.3049,2.3069,2.3095,2.3107,2.3116,2.3125,2.3123,2.3123,2.3121,2.3118,2.3149,2.3119,2.3119,2.312,2.312,2.312,0,2.2851,2.2868,2.2882,2.2905,2.2916,2.2935,2.2955,2.2962,2.2973,2.2991,2.3004,2.3018,2.3032,2.3055,2.307,2.3072,2.3081,2.3075,2.3075,2.3077,2.3109,2.3109,2.3067,2.3067,2.3067,2.3067,2.3068,2.3068,2.2833,2.284,2.2856,2.2871,2.2888,2.2901,2.2911,2.2924,2.2939,2.2955,2.2967,2.2983,2.3003,2.3019,2.3032,2.3038,2.3042,2.3033,2.3042,2.307,2.3075,2.308,2.308,2.3033,2.3033,2.301,2.301,2.3009]}]]